Weather History for Michigan City, IN

Change the Weather History Date:

Saturday, March 2, 2013

  Actual Average (KVPZ) Record (KVPZ)
Temperature  
Mean Temperature 29 °F 33 °F  
Max Temperature 32 °F 41 °F 67 °F (1974)
Min Temperature 26 °F 25 °F -3 °F (1925)
Degree Days  
Heating Degree Days 36 32  
Month to date heating degree days 65  
Since 1 July heating degree days 4797  
Cooling Degree Days 0 0  
Month to date cooling degree days 0  
Year to date cooling degree days 0  
Moisture  
Dew Point 21 °F    
Average Humidity 72    
Maximum Humidity 86    
Minimum Humidity 64    
Precipitation  
Precipitation 0.00 in 0.08 in 0.90 in (1991)
Month to date precipitation 0.16  
Year to date precipitation 3.33  
Sea Level Pressure  
Sea Level Pressure 30.12 in    
Wind  
Wind Speed 6 mph (North)    
Max Wind Speed 15 mph    
Max Gust Speed 22 mph    
Visibility 10 miles    
Events Snow    
T = Trace of Precipitation, MM = Missing Value Source: NWS Daily Summary

Daily Weather History Graph

Daily Weather History Graph

Search for Another Location

Airport:

Trip Planner

Search our weather history database for the weather conditions in past years. The results will help you decide how hot, cold, wet, or windy it might be!

Date:

Astronomy

Mar. 02, 2013 Rise Set
Actual Time 6:20 AM CST 5:39 PM CST
Civil Twilight 5:52 AM CST 6:07 PM CST
Nautical Twilight 5:20 AM CST 6:39 PM CST
Astronomical Twilight 4:47 AM CST 7:11 PM CST
Moon 11:23 PM CST (3/2) 8:42 AM CST (3/2)
Length of Visible Light 12h 14m
Length of Day
11h 19m
Waning Gibbous, 74% of the Moon is Illuminated
Mar 2
Waning Gibbous
Mar 4
Last Quarter
Mar 11
New
Mar 19
First Quarter
Mar 27
Full

Hourly Weather History & Observations

Time (CST) Temp. Windchill Dew Point Humidity Pressure Visibility Wind Dir Wind Speed Gust Speed Precip Events Conditions
12:15 AM 26.6 °F 22.6 °F 19.4 °F 74% 30.13 in 10.0 mi ENE 3.5 mph - N/A   Overcast
12:35 AM 26.6 °F 22.6 °F 19.4 °F 74% 30.13 in 10.0 mi East 3.5 mph - N/A   Overcast
12:55 AM 26.6 °F - 19.4 °F 74% 30.13 in 10.0 mi Calm Calm - N/A   Overcast
1:15 AM 28.4 °F - 19.4 °F 69% 30.13 in 10.0 mi Calm Calm - N/A   Overcast
1:35 AM 28.4 °F - 19.4 °F 69% 30.13 in 10.0 mi Calm Calm - N/A   Overcast
1:55 AM 28.4 °F - 19.4 °F 69% 30.13 in 10.0 mi Calm Calm - N/A   Overcast
2:15 AM 28.4 °F 23.3 °F 19.4 °F 69% 30.13 in 10.0 mi NNE 4.6 mph - N/A   Overcast
2:35 AM 28.4 °F 22.2 °F 19.4 °F 69% 30.12 in 10.0 mi NNE 5.8 mph - N/A   Overcast
2:55 AM 28.4 °F - 17.6 °F 64% 30.12 in 10.0 mi Calm Calm - N/A   Overcast
3:15 AM 28.4 °F - 19.4 °F 69% 30.12 in 10.0 mi Calm Calm - N/A   Overcast
3:35 AM 28.4 °F - 19.4 °F 69% 30.12 in 10.0 mi Calm Calm - N/A   Overcast
3:55 AM 28.4 °F 23.3 °F 21.2 °F 74% 30.12 in 10.0 mi NNE 4.6 mph - N/A   Overcast
4:15 AM 28.4 °F 21.2 °F 21.2 °F 74% 30.12 in 10.0 mi NNE 6.9 mph - N/A   Overcast
4:35 AM 28.4 °F 22.2 °F 21.2 °F 74% 30.12 in 10.0 mi North 5.8 mph - N/A   Overcast
4:55 AM 28.4 °F 21.2 °F 21.2 °F 74% 30.12 in 10.0 mi North 6.9 mph - N/A   Overcast
5:15 AM 28.4 °F 22.2 °F 21.2 °F 74% 30.12 in 10.0 mi North 5.8 mph - N/A   Overcast
5:35 AM 28.4 °F 19.1 °F 19.4 °F 69% 30.12 in 10.0 mi North 10.4 mph 16.1 mph N/A   Overcast
6:15 AM 28.4 °F 21.2 °F 19.4 °F 69% 30.13 in 10.0 mi NNE 6.9 mph - N/A   Overcast
6:35 AM 26.6 °F 21.2 °F 19.4 °F 74% 30.14 in 10.0 mi NNE 4.6 mph - N/A   Overcast
6:55 AM 28.4 °F 22.2 °F 19.4 °F 69% 30.14 in 10.0 mi NNE 5.8 mph - N/A   Overcast
7:15 AM 28.4 °F 22.2 °F 19.4 °F 69% 30.14 in 10.0 mi NE 5.8 mph - N/A   Overcast
7:35 AM 28.4 °F 21.2 °F 19.4 °F 69% 30.14 in 10.0 mi North 6.9 mph - N/A   Overcast
7:55 AM 28.4 °F 23.3 °F 21.2 °F 74% 30.14 in 10.0 mi NE 4.6 mph - N/A   Overcast
8:15 AM 28.4 °F 23.3 °F 21.2 °F 74% 30.14 in 10.0 mi North 4.6 mph - N/A   Overcast
8:35 AM 28.4 °F 22.2 °F 21.2 °F 74% 30.14 in 10.0 mi NNE 5.8 mph - N/A   Overcast
8:55 AM 28.4 °F 21.2 °F 19.4 °F 69% 30.14 in 10.0 mi NE 6.9 mph - N/A   Overcast
9:15 AM 28.4 °F 19.7 °F 19.4 °F 69% 30.14 in 10.0 mi NNE 9.2 mph - N/A   Overcast
9:35 AM 28.4 °F 21.2 °F 19.4 °F 69% 30.14 in 10.0 mi NE 6.9 mph - N/A   Overcast
9:55 AM 30.2 °F 24.3 °F 21.2 °F 69% 30.14 in 10.0 mi NE 5.8 mph - N/A   Overcast
10:15 AM 30.2 °F 23.4 °F 19.4 °F 64% 30.14 in 10.0 mi NNE 6.9 mph - N/A   Overcast
10:35 AM 30.2 °F 21.3 °F 21.2 °F 69% 30.14 in 10.0 mi North 10.4 mph - N/A   Overcast
10:55 AM 30.2 °F 22.6 °F 21.2 °F 69% 30.14 in 10.0 mi NNE 8.1 mph - N/A   Overcast
11:15 AM 30.2 °F 21.9 °F 21.2 °F 69% 30.14 in 10.0 mi NNE 9.2 mph - N/A   Overcast
11:35 AM 30.2 °F 20.8 °F 21.2 °F 69% 30.14 in 10.0 mi North 11.5 mph - N/A   Overcast
11:55 AM 30.2 °F 21.3 °F 23.0 °F 75% 30.13 in 10.0 mi NNE 10.4 mph 17.3 mph N/A   Overcast
12:15 PM 30.2 °F 20.8 °F 21.2 °F 69% 30.12 in 10.0 mi NNE 11.5 mph 20.7 mph N/A   Overcast
12:35 PM 32.0 °F 22.1 °F 23.0 °F 69% 30.12 in 10.0 mi NNE 13.8 mph 20.7 mph N/A   Overcast
12:55 PM 32.0 °F 22.5 °F 23.0 °F 69% 30.11 in 10.0 mi North 12.7 mph 17.3 mph N/A   Overcast
1:15 PM 32.0 °F 23.0 °F 21.2 °F 64% 30.11 in 10.0 mi NNE 11.5 mph 17.3 mph N/A   Overcast
1:35 PM 30.2 °F 19.3 °F 21.2 °F 69% 30.11 in 10.0 mi North 15.0 mph 21.9 mph N/A   Overcast
1:55 PM 30.2 °F 20.2 °F 21.2 °F 69% 30.10 in 10.0 mi NNE 12.7 mph 18.4 mph N/A   Overcast
2:15 PM 32.0 °F 22.1 °F 23.0 °F 69% 30.10 in 10.0 mi NNE 13.8 mph 18.4 mph N/A   Overcast
2:35 PM 32.0 °F 22.1 °F 21.2 °F 64% 30.10 in 10.0 mi North 13.8 mph 18.4 mph N/A   Overcast
2:55 PM 32.0 °F 21.6 °F 23.0 °F 69% 30.10 in 10.0 mi North 15.0 mph 19.6 mph N/A   Overcast
3:15 PM 30.2 °F 20.2 °F 23.0 °F 75% 30.10 in 10.0 mi North 12.7 mph 17.3 mph N/A   Overcast
3:35 PM 30.2 °F 21.9 °F 21.2 °F 69% 30.10 in 10.0 mi North 9.2 mph - N/A   Overcast
4:15 PM 30.2 °F 20.8 °F 26.6 °F 86% 30.12 in 5.0 mi NNW 11.5 mph 19.6 mph N/A Snow Light Snow
4:35 PM 30.2 °F 21.9 °F 24.8 °F 80% 30.12 in 5.0 mi NNW 9.2 mph 21.9 mph N/A Snow Light Snow
4:55 PM 30.2 °F 22.6 °F 26.6 °F 86% 30.12 in 5.0 mi North 8.1 mph 18.4 mph N/A Snow Light Snow
5:15 PM 30.2 °F 20.8 °F 24.8 °F 80% 30.12 in 10.0 mi NNW 11.5 mph 21.9 mph N/A   Overcast
5:35 PM 30.2 °F 20.8 °F 24.8 °F 80% 30.12 in 5.0 mi NNW 11.5 mph 21.9 mph N/A Snow Light Snow
5:55 PM 28.4 °F 18.0 °F 23.0 °F 80% 30.12 in 7.0 mi NNW 12.7 mph 21.9 mph N/A Snow Light Snow
6:35 PM 30.2 °F 21.3 °F 21.2 °F 69% 30.13 in 10.0 mi NNW 10.4 mph 19.6 mph N/A   Overcast
6:55 PM 28.4 °F 19.7 °F 21.2 °F 74% 30.13 in 10.0 mi NW 9.2 mph - N/A   Overcast
7:15 PM 28.4 °F 19.7 °F 19.4 °F 69% 30.13 in 10.0 mi NW 9.2 mph - N/A   Overcast
7:35 PM 28.4 °F 19.7 °F 21.2 °F 74% 30.13 in 10.0 mi NW 9.2 mph - N/A   Overcast
7:55 PM 28.4 °F 19.7 °F 21.2 °F 74% 30.13 in 10.0 mi NNW 9.2 mph - N/A   Overcast
8:15 PM 28.4 °F 19.1 °F 21.2 °F 74% 30.13 in 10.0 mi NW 10.4 mph - N/A   Overcast
8:35 PM 28.4 °F 20.4 °F 21.2 °F 74% 30.13 in 10.0 mi NW 8.1 mph - N/A   Overcast
8:55 PM 28.4 °F 21.2 °F 21.2 °F 74% 30.13 in 10.0 mi NW 6.9 mph 16.1 mph N/A   Overcast
9:15 PM 28.4 °F 20.4 °F 21.2 °F 74% 30.13 in 10.0 mi NW 8.1 mph - N/A   Overcast
9:35 PM 30.2 °F 20.8 °F 21.2 °F 69% 30.12 in 10.0 mi NNW 11.5 mph 16.1 mph N/A   Overcast
9:55 PM 28.4 °F 20.4 °F 21.2 °F 74% 30.12 in 10.0 mi NW 8.1 mph 18.4 mph N/A   Overcast
10:15 PM 28.4 °F 19.1 °F 21.2 °F 74% 30.12 in 10.0 mi NW 10.4 mph 17.3 mph N/A   Overcast
10:35 PM 28.4 °F 22.2 °F 23.0 °F 80% 30.12 in 10.0 mi WNW 5.8 mph - N/A   Overcast
10:55 PM 30.2 °F 23.4 °F 19.4 °F 64% 30.12 in 10.0 mi NNW 6.9 mph - N/A   Overcast
11:15 PM 30.2 °F 21.3 °F 21.2 °F 69% 30.11 in 10.0 mi NNW 10.4 mph 17.3 mph N/A   Overcast
11:35 PM 28.4 °F 21.2 °F 23.0 °F 80% 30.12 in 10.0 mi NW 6.9 mph - N/A   Overcast
11:55 PM 30.2 °F 22.6 °F 21.2 °F 69% 30.11 in 10.0 mi NNW 8.1 mph - N/A   Overcast